This is the latest recevied weather packets stored in our database for station/object WB4E-13. If no packets are shown the sender has not sent any weather packets the latest 10 day(s).
| Time | Temp. | Humidity | Pressure | Rain* | Wind** | Luminosity | Snow |
|---|---|---|---|---|---|---|---|
| 1777485761 | 22.22° C | 81% | 1008.1 hPa | 0 mm | - | - | - |
| 1777485161 | 22.22° C | 82% | 1008.2 hPa | 0 mm | - | - | - |
| 1777484561 | 21.67° C | 83% | 1008.2 hPa | 0 mm | - | - | - |
| 1777483961 | 21.67° C | 83% | 1008.2 hPa | 0 mm | - | - | - |
| 1777483360 | 21.67° C | 85% | 1008.3 hPa | 0 mm | - | - | - |
| 1777482760 | 20.56° C | 84% | 1008.6 hPa | 0 mm | - | - | - |
| 1777482160 | 20.56° C | 84% | 1008.7 hPa | 0 mm | - | - | - |
| 1777481560 | 20.56° C | 82% | 1008.8 hPa | 0 mm | - | - | - |
| 1777480960 | 21.11° C | 82% | 1008.8 hPa | 0 mm | - | - | - |
| 1777480360 | 21.11° C | 81% | 1008.5 hPa | 0 mm | - | - | - |
| 1777479760 | 21.11° C | 81% | 1008.8 hPa | 0 mm | - | - | - |
| 1777479159 | 21.11° C | 81% | 1009.1 hPa | 0 mm | - | - | - |
| 1777478560 | 21.11° C | 80% | 1009.2 hPa | 0 mm | - | - | - |
| 1777477959 | 21.11° C | 79% | 1009.1 hPa | 0 mm | - | - | - |
| 1777477359 | 21.67° C | 78% | 1009.1 hPa | 0 mm | - | - | - |
| 1777476759 | 21.67° C | 78% | 1009.1 hPa | 0 mm | - | - | - |
| 1777476158 | 21.11° C | 80% | 1009.3 hPa | 0 mm | - | - | - |
| 1777475558 | 20.56° C | 80% | 1009.3 hPa | 0 mm | - | - | - |
| 1777474959 | 20.56° C | 78% | 1009.4 hPa | 0 mm | - | - | - |
| 1777474358 | 20.56° C | 79% | 1009.3 hPa | 0 mm | - | - | - |
| 1777473758 | 20.56° C | 80% | 1009.3 hPa | 0 mm | - | - | - |
| 1777473158 | 20.56° C | 81% | 1009.3 hPa | 0 mm | - | - | - |
| 1777472592 | 20° C | 82% | 1009.3 hPa | 0 mm | - | - | - |
| 1777472562 | 20° C | 82% | 1009.3 hPa | 0 mm | - | - | - |
| 1777471489 | 20° C | 83% | 1009.3 hPa | 0 mm | - | - | - |
* Rain latest hour (hover to see other rain measurements)
** Current wind speed in m/s (hover to see current wind gust speed)